Regional Weather Roundup
Issued by NWS

Home | Current Version | Previous Version | Text Only | Print | Product List | Glossary Off
Versions: 1 2 3 4 5 6 7 8 9 10 11 12 13 14 15 16 17 18 19 20 21 22 23 24 25 26 27 28 29 30 31 32 33 34 35 36 37 38 39 40 41 42 43 44 45 46 47 48 49 50

000
ASUS43 KDMX 221607
RWRIA

WEATHER ROUNDUP FOR IOWA
NATIONAL WEATHER SERVICE DES MOINES IA
1100 AM CDT FRI MAY 22 2015

NOTE: "FAIR" INDICATES FEW OR NO CLOUDS BELOW 12,000 FEET WITH NO
SIGNIFICANT WEATHER AND/OR OBSTRUCTIONS TO VISIBILITY.

* - THESE STATIONS ARE NOT NWS STATIONS...THUS NOT UNDER NWS
QUALITY CONTROL.  THEY ALSO DO NOT REPORT WEATHER SUCH
AS PRECIPITATION OR FOG.

IAZ001>003-012>014-020>022-031>034-043>046-221700-
   NORTHWEST IOWA

CITY           SKY/WX    TMP DP  RH WIND       PRES   REMARKS
CARROLL *      SUNNY     70  36  28 SE3       30.22S
CHEROKEE *     SUNNY     68  39  34 CALM      30.22S
DENISON *      SUNNY     68  43  40 CALM      30.20S
LE MARS *      SUNNY     68  41  37 CALM      30.22S
ORANGE CITY *  SUNNY     68  39  34 E3        30.21F
SHELDON *      SUNNY     70  36  28 S6        30.21S
SIOUX CITY     MOSUNNY   69  41  36 CALM      30.22F
SPENCER        SUNNY     69  36  29 CALM      30.22S
STORM LAKE *   SUNNY     68  32  26 SE3       30.22F
$$

IAZ055>058-069>071-079>083-090>094-221700-
   SOUTHWEST IOWA

CITY           SKY/WX    TMP DP  RH WIND       PRES   REMARKS
ATLANTIC *     SUNNY     70  43  37 CALM      30.23S
AUDUBON *        N/A     70  43  37 CALM      30.24R
CLARINDA *     SUNNY     66  46  48 CALM      30.26S
COUNCIL BLFS * SUNNY     66  45  45 CALM      30.24F
CRESTON *        N/A    N/A N/A N/A MISG        N/A
HARLAN  *      SUNNY     70  41  35 NW5       30.26S
LAMONI         PTSUNNY   70  47  43 VRB3      30.24S
RED OAK *      SUNNY     66  46  48 CALM      30.24F
SHENANDOAH *   SUNNY     64  46  52 CALM      30.25F
$$

IAZ047>049-059>061-072>074-084-221700-
   CENTRAL IOWA

CITY           SKY/WX    TMP DP  RH WIND       PRES   REMARKS
AMES           SUNNY     69  38  32 CALM      30.22S
ANKENY *       SUNNY     68  45  42 CALM      30.22S
CHARITON *     SUNNY     68  43  40 CALM      30.23R
DES MOINES     CLOUDY    70  42  36 CALM      30.22S
GRINNELL*      SUNNY     70  37  30 CALM      30.22S
KNOXVILLE *    SUNNY     68  43  40 NW5       30.21S
MARSHALLTOWN   SUNNY     71  37  28 CALM      30.20F
PELLA *        SUNNY     70  55  60 W5        30.23S
PERRY *          N/A     68  39  34 CALM      30.22S
$$

IAZ004>006-015-016-023>025-035-036-221700-
   NORTH CENTRAL IOWA

CITY           SKY/WX    TMP DP  RH WIND       PRES   REMARKS
ALGONA *       SUNNY     68  37  32 VRB3      30.22S
CLARION *      SUNNY     68  34  28 NW6       30.22R
ESTHERVILLE    SUNNY     68  37  32 N5        30.22R
FORT DODGE *   SUNNY     66  43  42 CALM      30.23S
MASON CITY     SUNNY     69  35  28 VRB5      30.23S
FOREST CITY *  SUNNY     64  37  36 CALM      30.22F
IOWA FALLS *     N/A     70  36  28 E5        30.22S
$$

IAZ007>011-017>019-026>030-037>042-050>054-066-221700-
   NORTHEAST IOWA

CITY           SKY/WX    TMP DP  RH WIND       PRES   REMARKS
CEDAR RAPIDS   SUNNY     71  42  35 N6        30.20S
CHARLES CITY * SUNNY     70  32  24 CALM      30.22S
CLINTON *      SUNNY     68  46  45 CALM      30.23S
DECORAH *      SUNNY     66  39  37 N6        30.21R
DUBUQUE        SUNNY     67  46  47 CALM      30.22R
MONTICELLO *   SUNNY     70  41  35 VRB6      30.20S
OELWEIN *      SUNNY     70  36  28 NW8       30.21F
WATERLOO       SUNNY     71  41  33 N5        30.20S
$$

IAZ064-065-067-068-078-221700-
   EAST CENTRAL IOWA

CITY           SKY/WX    TMP DP  RH WIND       PRES   REMARKS
DAVENPORT      SUNNY     71  40  32 NW5       30.21R
IOWA CITY      SUNNY     70  44  39 VRB3      30.22R
MT. PLEASANT * SUNNY     70  43  37 CALM      30.22R
MUSCATINE *    SUNNY     72  43  35 CALM      30.21S
QUAD CITIES    SUNNY     70  43  37 W5        30.20R
$$

IAZ062-063-075>077-085>089-095>099-221700-
   SOUTHEAST IOWA

CITY           SKY/WX    TMP DP  RH WIND       PRES   REMARKS
BURLINGTON     MOSUNNY   72  46  39 VRB3      30.21R
FAIRFIELD *    SUNNY     70  43  37 CALM      30.22S
FORT MADISON * SUNNY     68  48  49 CALM      30.22S
KEOKUK *       SUNNY     70  50  49 CALM      30.22R
OSKALOOSA *      N/A     70  43  37 CALM      30.22S
CENTERVILLE *  SUNNY     70  70 100 SW5       30.25R
OTTUMWA        SUNNY     70  47  43 CALM      30.21S
WASHINGTON *   SUNNY     72  37  28 NW7       30.23R
$$

ABBREVIATIONS USED IN REMARKS
   TC - TEMPERATURES IN CELSIUS
  WCI - WIND CHILL INDEX
   HX - HEAT INDEX
  VSB - VISIBILITY
$$



USA.gov is the U.S. government's official web portal to all federal, state and local government web resources and services.